Starlink 31681

operational
NORAD ID: 59746 Int'l Des: 2024-090 Owner: SPXS Country: US Constellation: starlink
LEOCIRCULAR

About Starlink 31681

Description loading...

Live Position

Loading 3D Globe...

Upcoming Passes

Altitude History

Altitude vs Time

uPlot chart will show altitude changes over time

Two-Line Element Set

1 59746U 24090S 25305.35720204 -.00000239 00000-0 85090-6 0 9997
2 59746 43.0027 181.3033 0001803 284.9442 75.1210 15.27568609 83896
Epoch: Nov 1, 2025 • Age: 27 hours

Current Status

Altitude 486.6 km
Velocity 7.63 km/s
Sub-Earth Point 40.38°N, 24.61°E
Launch Date May 13, 2024
Age 1.4 years
Type internet

Technical Details

Classification Payload
Mass 730.00 kg
Dry Mass 700.00 kg
Total Mass 730.00 kg
Length 0.30 m
Diameter 4.10 m
Span 29.00 m
Shape Box + pan
Manufacturer SPXS
Bus Type Starlink V2M
Phase Status In Orbit
Owner/State SPXS/US

Large Constellations

Loading constellations...